Weather in Sredniy Postol

Russia / Udmurt Republic     56°45′23″N   52°47′06″E
temp.,
°C
wind,
m/s
gust,
m/s
humid.,
%
clouds,
%
prec.,
mm/h
press.,
hPa
HPBL,
m
10 may, mon
mon1001:00+13se386496 0.0 1016112
04:00+12sse227069 0.0 101824
07:00+14se2764100 0.0 1019202
10:00+21sse354298 0.0 1020512
13:00+24sse332989 0.0 10202600
16:00+24sse3229100 0.0 10212655
19:00+20ssw2246100 0.0 102111
22:00+16nnw1150100 0.0 102211
11 may, tue
tue1101:00+14nne3777100 0.0 1023140
04:00+12n2283100 0.0 102415
07:00+16ene1268100 0.0 1025102
10:00+21ne1149100 0.0 1026565
13:00+25s013745 0.0 10261853
16:00+22wnw224699 0.0 1026884
19:00+19nne246475 0.1 1027100
22:00+16nne227334 0.2 102814
12 may, wed
wed1201:00+14ne22788 0.0 102916
04:00+13ne22915 0.0 102935
07:00+16ene24765 0.0 1029215
10:00+21e23575 0.0 1029746
13:00+25se11430 0.0 10291675
16:00+26s113631 0.0 10282423
19:00+22sw225365 0.0 102727
22:00+19n115679 0.0 102811
13 may, thu
thu1301:00+17sse116364 0.0 102811
04:00+17se116796 0.0 102811
07:00+18e23695 0.0 1029141
10:00+23ese33460 0.0 1028784
13:00+26sse343694 0.0 10272386
16:00+26s34335 0.0 10262266
19:00+22ssw22450 0.0 102622
22:00+17s11515 0.0 102611
14 may, fri
fri1401:00+16sse22565 0.0 102611
04:00+15se22585 0.0 102615
07:00+18sse2556100 0.0 1026169
10:00+23s454373 0.0 1025642
13:00+25s4634100 0.0 10241538
16:00+26s563147 0.0 10231862
19:00+22ssw385094 0.0 1022279
22:00+17s3465100 0.0 102256